(2018 LN4) |
Classification: Apollo [NEO] SPK-ID: 3825179 |
[ hide orbit diagram ]
For accurate long-term ephemerides, please instead use our Horizons system.This orbit viewer was implemented using two-body methods, and hence should not be used for determining accurate long-term trajectories (over several years or decades) or planetary encounter circumstances.
Orbital Elements at Epoch 2459000.5 (2020-May-31.0) TDB
Reference: JPL 10 (heliocentric ecliptic J2000)
Element | Value | Uncertainty (1-sigma) | Units |
e | .296371950848913 | 0.00057551 | |
a | 1.306482230323781 | 0.0010848 | au |
q | .919277542973283 | 1.145e-05 | au |
i | 24.06678226179366 | 0.030143 | deg |
node | 262.29360767423 | 0.0003022 | deg |
peri | 66.3479040535691 | 0.044413 | deg |
M | 75.4624071394243 | 0.51036 | deg |
tp | 2458886.164303597981 (2020-Feb-06.66430360) | 0.63086 | TDB |
period | 545.4484194849232 1.49 | 0.67935 0.00186 | d yr |
n | .6600074125064923 | 0.00082203 | deg/d |
Q | 1.693686917674279 | 0.0014063 | au |
|
| | Orbit Determination Parameters
Additional Information
|
[ show covariance matrix ]
[ show close-approach data ]
|